GW7054 Weather Reports


time (UTC)temp
C
wind
direction
speed
KPH
gust
KPH
rain 1hr
cm
rain 24hr
cm
rain mn
cm
humidity
%
barometer
mb
20260906131543 28 25 3.2 3.2 0.00 0.00 0.00 93 1015.2
20260906131038 28 150 4.8 4.8 0.00 0.00 0.00 94 1015.2
20260906130537 27 169 3.2 3.2 0.00 0.00 0.00 99 1015.1
20260906130033 26 57 1.6 1.6 0.00 0.00 0.00 99 1015.0
20260906125530 26 48 1.6 1.6 0.00 0.00 0.00 99 1015.0
20260906125030 26 95 0.0 0.0 0.00 0.00 0.00 99 1015.0
20260906124526 25 138 0.0 1.6 0.00 0.00 0.00 99 1014.9
20260906124021 26 105 0.0 0.0 0.00 0.00 0.00 99 1014.8
20260906123520 25 149 1.6 3.2 0.00 0.00 0.00 99 1014.8
20260906123015 25 94 0.0 0.0 0.00 0.00 0.00 99 1014.9
20260906122515 25 138 0.0 0.0 0.00 0.00 0.00 99 1015.0
20260906122011 25 84 1.6 1.6 0.00 0.00 0.00 99 1015.0
20260906121507 24 72 0.0 0.0 0.00 0.00 0.00 99 1014.9
20260906121003 24 100 0.0 0.0 0.00 0.00 0.00 99 1014.7
20260906120458 24 86 0.0 0.0 0.00 0.00 0.00 99 1014.8
20260906115955 24 98 0.0 0.0 0.00 0.00 0.00 99 1014.8
20260906115450 24 106 0.0 0.0 0.00 0.00 0.00 99 1014.7
20260906114950 23 106 0.0 1.6 0.00 0.00 0.00 99 1014.5
20260906114444 23 100 0.0 0.0 0.00 0.00 0.00 99 1014.4
20260906113940 23 101 0.0 0.0 0.00 0.00 0.00 99 1014.3
20260906113439 23 97 0.0 0.0 0.00 0.00 0.00 99 1014.3
20260906112935 23 97 0.0 0.0 0.00 0.00 0.00 99 1014.2
20260906112430 23 118 0.0 0.0 0.00 0.00 0.00 99 1014.3
20260906111925 23 98 0.0 0.0 0.00 0.00 0.00 99 1014.0
20260906111425 23 93 0.0 0.0 0.00 0.00 0.00 99 1014.2
20260906110920 23 97 0.0 0.0 0.00 0.00 0.00 99 1013.8
20260906110415 23 101 0.0 0.0 0.00 0.00 0.00 99 1014.0
20260906105914 23 98 0.0 0.0 0.00 0.00 0.00 99 1013.8
20260906105410 23 97 0.0 0.0 0.00 0.00 0.00 99 1013.9
20260906104906 23 103 0.0 0.0 0.00 0.00 0.00 99 1014.0
20260906104404 23 119 0.0 0.0 0.00 0.00 0.00 99 1014.1
20260906103903 23 94 0.0 0.0 0.00 0.00 0.00 99 1013.9
20260906103401 23 93 0.0 0.0 0.00 0.00 0.00 99 1013.8
20260906102858 23 93 0.0 0.0 0.00 0.00 0.00 99 1013.8
20260906102357 23 93 0.0 0.0 0.00 0.00 0.00 99 1013.7
20260906101851 23 86 0.0 0.0 0.00 0.00 0.00 99 1013.8
20260906101347 23 101 0.0 0.0 0.00 0.00 0.00 99 1013.7
20260906100842 23 89 0.0 0.0 0.00 0.00 0.00 99 1014.1
20260906100341 23 100 0.0 0.0 0.00 0.00 0.00 99 1013.7
20260906095837 23 100 0.0 0.0 0.00 0.00 0.00 99 1013.7
20260906095332 23 100 0.0 0.0 0.00 0.00 0.00 99 1013.9
20260906094831 23 106 0.0 0.0 0.00 0.00 0.00 99 1013.8
20260906094327 23 105 0.0 0.0 0.00 0.00 0.00 99 1013.8
20260906093823 23 88 0.0 0.0 0.00 0.00 0.00 99 1013.6
20260906093319 23 85 0.0 0.0 0.00 0.00 0.00 99 1013.8
20260906092814 23 100 0.0 0.0 0.00 0.00 0.00 99 1013.7
20260906092313 23 102 0.0 0.0 0.00 0.00 0.00 99 1013.6
20260906091809 23 94 0.0 0.0 0.00 0.00 0.00 99 1013.5
20260906091305 23 98 0.0 0.0 0.00 0.00 0.00 99 1013.5
20260906090801 23 94 0.0 0.0 0.00 0.00 0.00 99 1013.6
20260906090300 23 93 0.0 0.0 0.00 0.00 0.00 99 1013.5
20260906085801 23 93 0.0 0.0 0.00 0.00 0.00 99 1013.4
20260906085259 23 93 0.0 0.0 0.00 0.00 0.00 99 1013.3
20260906084754 23 100 0.0 0.0 0.00 0.00 0.00 99 1013.2
20260906084254 23 100 0.0 0.0 0.00 0.00 0.00 99 1013.0
20260906083749 23 100 0.0 0.0 0.00 0.00 0.00 99 1013.1
20260906083245 23 104 0.0 0.0 0.00 0.00 0.00 99 1013.0
20260906082739 23 94 0.0 0.0 0.00 0.00 0.00 99 1013.0
20260906082234 23 92 0.0 0.0 0.00 0.00 0.00 99 1012.9
20260906081730 23 90 0.0 0.0 0.00 0.00 0.00 99 1013.1
20260906081225 23 94 0.0 0.0 0.00 0.00 0.00 99 1013.1
20260906080722 23 92 0.0 0.0 0.00 0.00 0.00 99 1013.2
20260906080218 23 94 0.0 0.0 0.00 0.00 0.00 99 1013.1
20260906075717 23 92 0.0 0.0 0.00 0.00 0.00 99 1013.0
20260906075212 23 93 0.0 0.0 0.00 0.00 0.00 99 1013.3
20260906074707 23 94 0.0 0.0 0.00 0.00 0.00 99 1013.2
20260906074207 23 94 0.0 0.0 0.00 0.00 0.00 99 1013.2
20260906073701 23 98 0.0 0.0 0.00 0.00 0.00 99 1013.3
20260906073157 23 98 0.0 0.0 0.00 0.00 0.00 99 1013.3
20260906072652 23 92 0.0 0.0 0.00 0.00 0.00 99 1013.4
20260906072148 23 88 0.0 0.0 0.00 0.00 0.00 99 1013.3
20260906071644 24 91 0.0 0.0 0.00 0.00 0.00 99 1013.5
20260906071143 23 92 0.0 0.0 0.00 0.00 0.00 99 1013.4
20260906070640 24 96 0.0 0.0 0.00 0.00 0.00 99 1013.3
20260906070135 24 94 0.0 0.0 0.00 0.00 0.00 99 1013.5
20260906065635 24 93 0.0 0.0 0.00 0.00 0.00 99 1013.4
20260906065130 24 94 0.0 0.0 0.00 0.00 0.00 99 1013.4
20260906064626 24 104 0.0 0.0 0.00 0.00 0.00 99 1013.6
20260906064121 23 88 0.0 0.0 0.00 0.00 0.00 99 1013.6
20260906063616 23 93 0.0 0.0 0.00 0.00 0.00 99 1013.4
20260906063112 23 88 0.0 0.0 0.00 0.00 0.00 99 1013.2
20260906062607 23 92 0.0 0.0 0.00 0.00 0.00 99 1013.2
20260906062106 23 104 0.0 0.0 0.00 0.00 0.00 99 1013.3
20260906061603 23 93 0.0 0.0 0.00 0.00 0.00 99 1013.2
20260906061102 23 93 0.0 0.0 0.00 0.00 0.00 99 1013.6
20260906060559 23 93 0.0 0.0 0.00 0.00 0.00 99 1013.7
20260906060056 23 93 0.0 0.0 0.00 0.00 0.00 99 1013.7
20260906055551 24 98 0.0 0.0 0.00 0.00 0.00 99 1013.8
20260906055046 24 98 0.0 0.0 0.00 0.00 0.00 99 1013.9
20260906054541 24 100 0.0 0.0 0.00 0.00 0.00 99 1013.9
20260906054036 24 99 0.0 0.0 0.00 0.00 0.00 99 1014.0
20260906053532 24 92 0.0 0.0 0.00 0.00 0.00 99 1013.9
20260906053028 24 92 0.0 0.0 0.00 0.00 0.00 99 1014.2
20260906052523 24 86 0.0 0.0 0.00 0.00 0.00 99 1013.9
20260906052021 24 99 0.0 0.0 0.00 0.00 0.00 99 1014.0
20260906051516 24 104 0.0 0.0 0.00 0.00 0.00 99 1013.8
20260906051011 24 82 0.0 0.0 0.00 0.00 0.00 99 1014.1
20260906050511 24 85 0.0 0.0 0.00 0.00 0.00 99 1014.0
20260906050006 24 94 0.0 0.0 0.00 0.00 0.00 99 1013.9
20260906045504 24 109 0.0 0.0 0.00 0.00 0.00 99 1013.6
20260906045000 24 107 0.0 0.0 0.00 0.00 0.00 99 1013.9
20260906044455 23 106 0.0 0.0 0.00 0.00 0.00 99 1013.9
20260906043951 23 98 0.0 0.0 0.00 0.00 0.00 99 1014.0
20260906043447 23 101 0.0 0.0 0.00 0.00 0.00 99 1013.8
20260906042943 23 96 0.0 0.0 0.00 0.00 0.00 99 1014.0
20260906042442 24 94 0.0 0.0 0.00 0.00 0.00 99 1013.8
20260906041942 24 115 0.0 0.0 0.00 0.00 0.00 99 1014.0
20260906041438 24 100 0.0 0.0 0.00 0.00 0.00 99 1014.3
20260906040937 24 104 0.0 0.0 0.00 0.00 0.00 99 1014.2
20260906040433 24 104 0.0 0.0 0.00 0.00 0.00 99 1014.3
20260906035928 23 101 0.0 0.0 0.00 1.60 1.60 99 1014.3
20260906035429 23 98 0.0 0.0 0.00 1.60 1.60 99 1014.6
20260906034924 23 93 0.0 0.0 0.00 1.60 1.60 99 1014.7
20260906034419 24 93 0.0 0.0 0.00 1.60 1.60 99 1014.8
20260906033914 24 93 0.0 0.0 0.00 1.60 1.60 99 1014.7
20260906033414 24 96 0.0 0.0 0.00 1.60 1.60 99 1014.9
20260906032910 24 93 0.0 0.0 0.00 1.60 1.60 99 1015.0
20260906032407 24 86 0.0 0.0 0.00 1.60 1.60 99 1014.9
20260906031907 24 88 0.0 0.0 0.00 1.60 1.60 99 1015.0
20260906031402 24 89 0.0 0.0 0.00 1.60 1.60 99 1014.8
20260906030857 24 88 0.0 0.0 0.00 1.60 1.60 99 1014.6
20260906030353 24 98 0.0 0.0 0.00 1.60 1.60 99 1014.8
20260906025852 24 98 0.0 0.0 0.00 1.60 1.60 99 1015.0
20260906025346 24 89 0.0 0.0 0.00 1.60 1.60 99 1014.8
20260906024845 24 98 0.0 0.0 0.00 1.60 1.60 99 1015.0
20260906024344 24 104 0.0 0.0 0.00 1.60 1.60 99 1014.7
20260906023840 24 89 0.0 0.0 0.00 1.60 1.60 99 1014.9
20260906023336 24 89 0.0 0.0 0.00 1.60 1.60 99 1014.8
20260906022831 24 89 0.0 0.0 0.00 1.60 1.60 99 1014.9
20260906022326 24 92 0.0 0.0 0.00 1.60 1.60 99 1014.6
20260906021822 24 110 0.0 0.0 0.00 1.60 1.60 99 1014.5
20260906021321 24 92 0.0 0.0 0.00 1.60 1.60 99 1014.5
20260906020816 25 91 0.0 0.0 0.00 1.60 1.60 99 1014.5
20260906020315 24 93 0.0 0.0 0.00 1.60 1.60 99 1014.6
20260906015810 25 94 0.0 0.0 0.00 1.60 1.60 99 1014.4
20260906015309 25 91 0.0 0.0 0.00 1.60 1.60 99 1014.3
20260906014809 25 94 0.0 0.0 0.00 1.60 1.60 99 1014.2
20260906014304 25 98 0.0 0.0 0.00 1.60 1.60 99 1014.4
20260906013801 25 94 0.0 0.0 0.00 1.60 1.60 99 1014.6
20260906013301 25 94 0.0 0.0 0.00 1.60 1.60 99 1014.2
20260906012756 25 98 0.0 0.0 0.00 1.60 1.60 99 1014.1
20260906012251 25 90 0.0 0.0 0.00 1.60 1.60 99 1013.9
20260906011746 25 94 0.0 0.0 0.00 1.60 1.60 99 1014.1
20260906011246 25 95 0.0 0.0 0.00 1.60 1.60 99 1014.0
20260906010742 25 91 0.0 0.0 0.00 1.60 1.60 99 1014.0
20260906010238 25 94 0.0 0.0 0.00 1.60 1.60 99 1013.8
20260906005733 25 94 0.0 0.0 0.00 1.60 1.60 99 1013.7
20260906005232 25 95 0.0 0.0 0.00 1.60 1.60 99 1013.7
20260906004731 25 99 0.0 0.0 0.00 1.60 1.60 99 1013.6
20260906004227 25 110 0.0 0.0 0.00 1.60 1.60 99 1013.3
20260906003721 25 109 0.0 0.0 0.00 1.60 1.60 99 1013.4
20260906003217 25 105 0.0 0.0 0.00 1.60 1.60 99 1013.7
20260906002717 25 94 0.0 0.0 0.00 1.60 1.60 98 1013.5
20260906002212 25 94 0.0 0.0 0.00 1.60 1.60 97 1013.3
20260906001707 26 94 0.0 0.0 0.00 1.60 1.60 97 1013.2
20260906001207 26 89 0.0 0.0 0.00 1.60 1.60 96 1013.3
20260906000703 26 91 0.0 0.0 0.00 1.60 1.60 95 1013.4
20260906000158 26 88 0.0 0.0 0.00 1.60 1.60 94 1013.5
20260905235657 26 101 0.0 0.0 0.00 1.60 1.60 93 1013.1
20260905235152 26 93 0.0 0.0 0.00 1.60 1.60 93 1013.4
20260905234647 26 95 0.0 0.0 0.00 1.60 1.60 93 1013.1
20260905234143 27 92 0.0 0.0 0.00 1.60 1.60 92 1013.2
20260905233638 27 106 0.0 0.0 0.00 1.60 1.60 91 1013.1
20260905233137 27 77 1.6 1.6 0.00 1.60 1.60 91 1013.1
20260905232632 27 338 0.0 1.6 0.00 1.60 1.60 90 1013.2
20260905232128 27 92 1.6 1.6 0.00 1.60 1.60 90 1013.0
20260905231623 27 103 0.0 0.0 0.00 1.60 1.60 92 1013.3
20260905231119 28 68 1.6 1.6 0.00 1.60 1.60 91 1013.0
20260905230615 28 279 1.6 3.2 0.00 1.60 1.60 90 1013.2
20260905230113 28 79 1.6 3.2 0.00 1.60 1.60 89 1013.5
20260905225612 29 200 3.2 3.2 0.00 1.60 1.60 88 1013.4
20260905225108 30 17 4.8 4.8 0.00 1.60 1.60 87 1013.3
20260905224607 31 250 3.2 3.2 0.00 1.60 1.60 87 1013.6
20260905224107 31 99 0.0 0.0 0.00 1.60 1.60 84 1013.4
20260905223604 31 102 0.0 0.0 0.00 1.60 1.60 81 1013.5
20260905223101 32 96 0.0 0.0 0.00 1.60 1.60 81 1013.6
20260905222600 32 102 0.0 0.0 0.00 1.60 1.60 80 1013.5
20260905222055 31 96 0.0 0.0 0.00 1.60 1.60 81 1013.7
20260905221552 31 128 0.0 1.6 0.00 1.60 1.60 82 1013.5
20260905221047 32 94 0.0 0.0 0.00 1.60 1.60 78 1013.6
20260905220543 33 90 0.0 0.0 0.00 1.60 1.60 74 1013.9
20260905220039 33 10 1.6 3.2 0.00 1.60 1.60 74 1013.8
20260905215538 33 107 0.0 1.6 0.00 1.60 1.60 74 1013.9
20260905215035 33 92 0.0 0.0 0.00 1.60 1.60 75 1013.9
20260905214530 33 276 3.2 3.2 0.00 1.60 1.60 71 1013.7
20260905214025 33 216 1.6 1.6 0.00 1.60 1.60 73 1014.1
20260905213520 33 139 0.0 1.6 0.00 1.60 1.60 74 1014.0
20260905213016 33 105 1.6 1.6 0.00 1.60 1.60 73 1014.2
20260905212511 33 218 1.6 1.6 0.00 1.60 1.60 76 1013.9
20260905212010 33 72 1.6 1.6 0.00 1.60 1.60 72 1013.5
20260905211505 33 102 1.6 1.6 0.00 1.60 1.60 75 1013.6
20260905211001 33 308 1.6 3.2 0.00 1.60 1.60 73 1013.5
20260905210457 33 135 1.6 3.2 0.00 1.60 1.60 73 1013.6
20260905205956 33 82 0.0 1.6 0.00 1.60 1.60 73 1013.6
20260905205451 33 142 1.6 1.6 0.00 1.60 1.60 74 1013.6
20260905204949 32 23 4.8 4.8 0.00 1.60 1.60 77 1013.7
20260905204445 32 95 0.0 0.0 0.00 1.60 1.60 77 1013.6
20260905203944 33 226 4.8 8.0 0.00 1.60 1.60 75 1013.9
20260905203440 33 334 3.2 3.2 0.00 1.60 1.60 75 1013.9
20260905202936 32 88 0.0 0.0 0.00 1.60 1.60 74 1014.0
20260905202431 32 134 3.2 4.8 0.00 1.60 1.60 78 1014.3
20260905201926 32 90 0.0 1.6 0.00 1.60 1.60 80 1014.4
20260905201421 32 83 0.0 1.6 0.00 1.60 1.60 79 1014.4
20260905200921 32 86 1.6 1.6 0.00 1.60 1.60 80 1014.1
20260905200417 31 161 3.2 3.2 0.00 1.60 1.60 81 1014.3
20260905195915 31 73 0.0 0.0 0.00 1.60 1.60 84 1014.3
20260905195410 30 143 1.6 1.6 0.00 1.60 1.60 85 1014.2
20260905194906 30 12 0.0 1.6 0.00 1.60 1.60 88 1014.4
20260905194406 30 205 0.0 0.0 0.00 1.60 1.60 89 1014.3
20260905193906 30 91 0.0 0.0 0.00 1.60 1.60 89 1014.5
20260905193400 30 316 1.6 3.2 0.00 1.60 1.60 88 1014.4
20260905192856 30 85 0.0 0.0 0.00 1.60 1.60 90 1014.6
20260905192351 30 101 1.6 3.2 0.00 1.60 1.60 88 1014.7
20260905191851 30 137 3.2 4.8 0.00 1.60 1.60 89 1014.8
20260905191350 29 92 1.6 3.2 0.00 1.60 1.60 92 1014.7
20260905190849 28 102 0.0 0.0 0.00 1.60 1.60 99 1014.6
20260905190348 27 17 1.6 1.6 0.00 1.60 1.60 99 1014.7
20260905185847 26 77 1.6 1.6 0.00 1.60 1.60 99 1014.7
20260905185343 27 96 0.0 0.0 0.00 1.60 1.60 99 1014.9
20260905184841 26 71 1.6 1.6 0.00 1.60 1.60 99 1015.1
20260905184341 26 95 0.0 0.0 0.00 1.60 1.60 99 1015.1
20260905183839 26 82 0.0 1.6 0.00 1.60 1.60 99 1015.1
20260905183336 25 62 1.6 1.6 0.00 1.60 1.60 99 1014.9
20260905182836 25 82 0.0 1.6 0.00 1.60 1.60 99 1015.0
20260905182335 25 93 0.0 1.6 0.00 1.60 1.60 99 1015.1
20260905181831 26 73 3.2 3.2 0.00 1.60 1.60 99 1015.3
20260905181330 25 65 1.6 3.2 0.00 1.60 1.60 99 1015.5
20260905180829 26 91 1.6 1.6 0.18 1.60 1.60 99 1015.7
20260905180325 26 81 1.6 3.2 0.18 1.60 1.60 99 1015.5
20260905175820 26 82 1.6 1.6 0.00 1.57 1.57 99 1015.7
20260905175320 26 75 0.0 0.0 0.00 1.57 1.57 99 1015.7
20260905174815 26 73 0.0 0.0 0.00 1.57 1.57 99 1015.7
20260905174311 26 95 1.6 1.6 0.00 1.57 1.57 99 1015.7
20260905173806 26 87 0.0 0.0 0.13 1.57 1.57 99 1015.6
20260905173302 26 74 3.2 3.2 0.43 1.57 1.57 99 1015.7
20260905172802 26 93 0.0 0.0 1.07 1.55 1.55 99 1016.0
20260905172300 26 57 1.6 3.2 3.07 1.50 1.50 99 1016.0
20260905171757 26 26 1.6 1.6 4.37 1.35 1.35 99 1016.0
20260905171253 26 140 1.6 1.6 3.96 1.04 1.04 99 1016.0
20260905170749 27 118 1.6 1.6 2.69 0.64 0.64 99 1016.0
20260905170245 27 106 1.6 1.6 1.07 0.33 0.33 99 1015.9
20260905165744 27 106 1.6 1.6 0.00 0.15 0.15 99 1015.9
20260905165240 27 134 3.2 3.2 0.00 0.15 0.15 99 1015.9
20260905164739 27 97 1.6 1.6 0.00 0.15 0.15 99 1016.0
20260905164234 27 104 1.6 1.6 0.79 0.15 0.15 99 1016.1
20260905163730 29 85 0.0 0.0 0.61 0.13 0.13 91 1015.8
20260905163226 30 123 3.2 4.8 0.00 0.03 0.03 85 1016.1
20260905162722 31 95 0.0 0.0 0.00 0.03 0.03 83 1016.2
20260905162222 31 121 1.6 1.6 0.00 0.03 0.03 80 1016.2
20260905161717 32 97 1.6 1.6 0.00 0.03 0.03 78 1016.2
20260905161215 33 67 0.0 1.6 0.00 0.03 0.03 75 1016.5
20260905160713 32 15 4.8 8.0 0.00 0.03 0.03 80 1016.3
20260905160214 32 357 1.6 1.6 0.00 0.03 0.03 81 1016.4
20260905155708 32 83 4.8 8.0 0.00 0.03 0.03 81 1016.3
20260905155207 33 186 4.8 8.0 0.00 0.03 0.03 75 1016.5
20260905154701 33 196 3.2 3.2 0.00 0.03 0.03 75 1016.2
20260905154157 32 57 1.6 1.6 0.00 0.03 0.03 77 1016.5
20260905153653 33 87 1.6 3.2 0.00 0.03 0.03 77 1016.5
20260905153148 32 90 0.0 0.0 0.00 0.03 0.03 79 1016.5
20260905152643 32 81 1.6 1.6 0.00 0.03 0.03 82 1016.4
20260905152138 31 286 3.2 8.0 0.00 0.03 0.03 79 1016.6
20260905151632 32 253 8.0 8.0 0.00 0.03 0.03 80 1016.7
20260905151128 31 88 0.0 0.0 0.00 0.03 0.03 85 1016.7
20260905150623 30 91 1.6 1.6 0.00 0.03 0.03 90 1016.8
20260905150121 30 146 1.6 1.6 0.00 0.03 0.03 86 1016.6
20260905145620 31 98 0.0 1.6 0.00 0.03 0.03 85 1016.7
20260905145119 31 308 4.8 4.8 0.00 0.03 0.03 86 1016.6
20260905144614 31 53 1.6 1.6 0.00 0.03 0.03 87 1016.6
20260905144114 30 278 1.6 3.2 0.00 0.03 0.03 88 1016.7
20260905143614 31 268 4.8 4.8 0.00 0.03 0.03 87 1016.9
20260905143108 30 92 4.8 8.0 0.00 0.03 0.03 88 1016.7
20260905142608 30 190 4.8 8.0 0.00 0.03 0.03 88 1016.8
20260905142108 30 179 3.2 3.2 0.00 0.03 0.03 92 1016.8
20260905141607 30 27 1.6 1.6 0.00 0.03 0.03 93 1016.9
20260905141104 29 121 3.2 4.8 0.00 0.03 0.03 94 1017.0
20260905140559 28 149 3.2 3.2 0.00 0.03 0.03 96 1017.0
20260905140058 27 93 0.0 0.0 0.00 0.03 0.03 99 1017.0
20260905135553 27 213 3.2 3.2 0.00 0.03 0.03 99 1016.8
20260905135053 26 89 1.6 1.6 0.00 0.03 0.03 99 1016.9
20260905134548 26 77 0.0 1.6 0.00 0.03 0.03 99 1016.8
20260905134047 26 119 3.2 4.8 0.00 0.03 0.03 99 1016.6
20260905133543 26 120 0.0 0.0 0.00 0.03 0.03 99 1016.8
20260905133042 26 79 0.0 0.0 0.00 0.03 0.03 99 1016.9
20260905132542 26 72 0.0 1.6 0.00 0.03 0.03 99 1016.6
20260905132037 26 152 0.0 0.0 0.00 0.03 0.03 99 1016.8